FW6109 Weather Reports


time (UTC)temp
C
wind
direction
speed
KPH
gust
KPH
rain 1hr
cm
rain 24hr
cm
rain mn
cm
humidity
%
barometer
mb
20260505074018 13 172 0.0 3.2 0.00 0.00 0.00 81 1007.4
20260505073018 13 0.0 0.0 0.00 0.00 0.00 80 1007.2
20260505072018 13 226 0.0 1.6 0.00 0.00 0.00 79 1007.2
20260505071059 14 211 0.0 1.6 0.00 0.00 0.00 77 1007.2
20260505070016 14 151 0.0 4.8 0.00 0.00 0.00 77 1007.2
20260505065016 15 182 0.0 3.2 0.00 0.00 0.00 76 1007.3
20260505064016 15 168 1.6 4.8 0.00 0.00 0.00 75 1007.2
20260505063020 -17 0.0 0.0 0.00 0.00 0.00
20260505062017 16 189 0.0 1.6 0.00 0.00 0.00 73 1007.1
20260505061017 16 194 0.0 4.8 0.00 0.00 0.00 73 1007.1
20260505060016 16 163 0.0 4.8 0.00 0.00 0.00 73 1007.0
20260505055017 16 195 0.0 3.2 0.00 0.00 0.00 72 1006.5
20260505054018 16 0.0 0.0 0.00 0.00 0.00 70 1006.4
20260505053017 17 0.0 0.0 0.00 0.00 0.00 70 1006.5
20260505052017 17 0.0 0.0 0.00 0.00 0.00 69 1006.5
20260505051017 17 0.0 0.0 0.00 0.00 0.00 67 1006.6
20260505041015 19 0.0 0.0 0.00 0.00 0.00 59 1006.1
20260505040017 20 323 0.0 1.6 0.00 0.00 0.00 57 1006.1
20260505035016 21 0.0 0.0 0.00 0.00 0.00 55 1006.3
20260505034016 21 0.0 0.0 0.00 0.00 0.00 54 1006.4
20260505033017 21 219 0.0 1.6 0.00 0.00 0.00 53 1006.5
20260505032036 21 219 0.0 1.6 0.00 0.00 0.00 53 1006.6
20260505031037 22 0.0 0.0 0.00 0.00 0.00 52 1006.8
20260505030016 22 307 0.0 1.6 0.00 0.00 0.00 50 1007.0
20260505025018 22 300 0.0 3.2 0.00 0.00 0.00 49 1007.2
20260505024016 23 335 0.0 3.2 0.00 0.00 0.00 49 1007.4
20260505023017 23 331 1.6 4.8 0.00 0.00 0.00 47 1007.6
20260505022016 24 331 3.2 4.8 0.00 0.00 0.00 47 1008.0
20260505021017 25 340 3.2 6.4 0.00 0.00 0.00 46 1008.4
20260505020039 25 344 3.2 6.4 0.00 0.00 0.00 46 1008.7
20260505015018 26 349 4.8 9.7 0.00 0.00 0.00 46 1009.0
20260505014018 27 343 4.8 11.3 0.00 0.00 0.00 45 1009.1
20260505013019 27 337 3.2 4.8 0.00 0.00 0.00
20260505012016 28 145 1.6 4.8 0.00 0.00 0.00 44 1009.0
20260505011015 28 206 0.0 1.6 0.00 0.00 0.00 43 1008.9
20260505010016 28 265 0.0 4.8 0.00 0.00 0.00 43 1009.0
20260505005016 28 204 1.6 3.2 0.00 0.00 0.00 43 1009.1
20260505004037 28 242 0.0 3.2 0.00 0.00 0.00 43 1009.2
20260505003016 27 196 0.0 3.2 0.00 0.00 0.00 42 1009.4
20260505002016 28 284 4.8 8.0 0.00 0.00 0.00 42 1009.6
20260505001057 29 315 1.6 6.4 0.00 0.00 0.00 42 1009.6
20260505000017 28 267 0.0 6.4 0.00 0.00 0.00 42 1009.7
20260504235017 28 202 0.0 3.2 0.00 0.00 0.00 42 1009.7
20260504234017 28 193 0.0 3.2 0.00 0.00 0.00 42 1009.9
20260504233017 28 191 1.6 9.7 0.00 0.00 0.00 40 1009.9
20260504232017 28 137 0.0 3.2 0.00 0.00 0.00 40 1010.0
20260504231038 28 242 1.6 6.4 0.00 0.00 0.00 40 1010.0
20260504230018 27 180 1.6 4.8 0.00 0.00 0.00 40 1010.0
20260504225017 27 181 1.6 4.8 0.00 0.00 0.00 40 1010.2
20260504224037 27 162 1.6 6.4 0.00 0.00 0.00 40 1010.3
20260504223018 27 204 1.6 6.4 0.00 0.00 0.00 40 1010.6
20260504222037 27 142 1.6 4.8 0.00 0.00 0.00 40 1011.0
20260504221018 27 175 0.0 4.8 0.00 0.00 0.00 40 1011.3
20260504220018 -17 0.0 0.0 0.00 0.00 0.00
20260504215015 -17 0.0 0.0 0.00 0.00 0.00
20260504214036 -17 0.0 0.0 0.00 0.00 0.00
20260504213016 -17 0.0 0.0 0.00 0.00 0.00
20260504212016 26 190 1.6 4.8 0.00 0.00 0.00 38 1012.3
20260504211016 -17 0.0 0.0 0.00 0.00 0.00
20260504210016 -17 0.0 0.0 0.00 0.00 0.00
20260504205017 -17 0.0 0.0 0.00 0.00 0.00
20260504204037 -17 0.0 0.0 0.00 0.00 0.00
20260504203018 -17 0.0 0.0 0.00 0.00 0.00
20260504202037 -17 0.0 0.0 0.00 0.00 0.00
20260504201018 -17 0.0 0.0 0.00 0.00 0.00
20260504200018 -17 0.0 0.0 0.00 0.00 0.00
20260504195017 -17 0.0 0.0 0.00 0.00 0.00
20260504194016 25 235 1.6 8.0 0.00 0.00 0.00 46 1013.5
20260504193018 25 253 1.6 4.8 0.00 0.00 0.00 46 1013.7
20260504192017 25 184 0.0 4.8 0.00 0.00 0.00 46 1014.1
20260504191016 25 225 1.6 6.4 0.00 0.00 0.00 46 1014.4
20260504190017 25 176 1.6 4.8 0.00 0.00 0.00 47 1014.7
20260504185016 25 217 1.6 3.2 0.00 0.00 0.00 49 1015.1
20260504184016 24 215 1.6 4.8 0.00 0.00 0.00 51 1015.3
20260504183017 -17 0.0 0.0 0.00 0.00 0.00
20260504182057 23 264 0.0 4.8 0.00 0.00 0.00 53 1015.1
20260504181017 -17 0.0 0.0 0.00 0.00 0.00
20260504180037 -17 0.0 0.0 0.00 0.00 0.00
20260504175017 22 208 0.0 6.4 0.00 0.00 0.00 57 1015.6
20260504174019 22 188 0.0 4.8 0.00 0.00 0.00 59 1015.6
20260504173017 22 192 1.6 3.2 0.00 0.00 0.00 60 1015.8
20260504172017 22 201 1.6 3.2 0.00 0.00 0.00 61 1016.0
20260504171037 22 173 0.0 3.2 0.00 0.00 0.00 62 1016.2
20260504151017 16 350 0.0 3.2 0.00 0.00 0.00 70 1016.9
20260504141017 12 0.0 0.0 0.00 0.00 0.00 81 1015.1
20260504081018 13 296 0.0 1.6 0.00 0.00 0.00 70 1005.4